• In Netherlands
  • List of Countries
  • For 7 days
  • Water Temperature
  • Satellite Maps
  • Weather Map
  • Weather Widgets
  • user-avatar
    Login

    Hourly Weather Ravda

    Today, 21 February, Tuesday

    Time Temperature Precipitation Wind Pressure Humidity
    00:00 +1°C° 0 mm 3 mps 764 mmHg 85%
    01:00 0°C° 0 mm 4 mps 764 mmHg 84%
    02:00 0°C° 0 mm 4 mps 763 mmHg 83%
    03:00 0°C° 0 mm 4 mps 763 mmHg 82%
    04:00 0°C° 0 mm 4 mps 763 mmHg 82%
    05:00 -1°C° 0 mm 4 mps 763 mmHg 82%
    06:00 0°C° 0 mm 4 mps 763 mmHg 80%
    07:00 0°C° 0 mm 4 mps 763 mmHg 79%
    08:00 0°C° 0 mm 4 mps 763 mmHg 77%
    09:00 +3°C° 0 mm 4 mps 763 mmHg 70%
    10:00 +5°C° 0 mm 4 mps 762 mmHg 64%
    11:00 +7°C° 0 mm 5 mps 762 mmHg 58%
    12:00 +7°C° 0 mm 4 mps 762 mmHg 57%
    13:00 +8°C° 0 mm 4 mps 761 mmHg 56%
    14:00 +10°C° 0 mm 4 mps 761 mmHg 55%
    15:00 +8°C° 0 mm 4 mps 761 mmHg 61%
    16:00 +8°C° 0 mm 3 mps 761 mmHg 67%
    17:00 +8°C° 0 mm 3 mps 760 mmHg 73%
    18:00 +7°C° 0 mm 3 mps 760 mmHg 75%
    19:00 +5°C° 0 mm 3 mps 760 mmHg 78%
    20:00 +4°C° 0 mm 3 mps 760 mmHg 80%
    21:00 +4°C° 0 mm 4 mps 760 mmHg 80%
    22:00 +4°C° 0 mm 4 mps 760 mmHg 80%
    23:00 +4°C° 0 mm 4 mps 760 mmHg 79%

    Tomorrow, 22 February, Wednesday

    Time Temperature Precipitation Wind Pressure Humidity
    00:00 +4°C° 0 mm 4 mps 760 mmHg 80%
    01:00 +4°C° 0 mm 4 mps 760 mmHg 80%
    02:00 +3°C° 0 mm 5 mps 760 mmHg 80%
    03:00 +3°C° 0.1 mm 5 mps 760 mmHg 80%
    04:00 +3°C° 0.1 mm 5 mps 760 mmHg 79%
    05:00 +3°C° 0.1 mm 5 mps 760 mmHg 78%
    06:00 +3°C° 0 mm 5 mps 760 mmHg 78%
    07:00 +3°C° 0 mm 5 mps 761 mmHg 78%
    08:00 +3°C° 0 mm 5 mps 761 mmHg 78%
    09:00 +6°C° 0 mm 5 mps 761 mmHg 74%
    10:00 +7°C° 0 mm 6 mps 762 mmHg 71%
    11:00 +9°C° 0 mm 6 mps 762 mmHg 67%
    12:00 +10°C° 0 mm 6 mps 762 mmHg 65%
    13:00 +10°C° 0 mm 5 mps 762 mmHg 63%
    14:00 +12°C° 0 mm 5 mps 762 mmHg 61%
    15:00 +11°C° 0 mm 4 mps 762 mmHg 66%
    16:00 +11°C° 0 mm 3 mps 762 mmHg 71%
    17:00 +10°C° 0 mm 2 mps 762 mmHg 75%
    18:00 +9°C° 0 mm 2 mps 762 mmHg 78%
    19:00 +8°C° 0 mm 2 mps 762 mmHg 80%
    20:00 +7°C° 0 mm 2 mps 762 mmHg 82%
    21:00 +7°C° 0 mm 2 mps 762 mmHg 83%
    22:00 +5°C° 0 mm 3 mps 762 mmHg 84%
    23:00 +5°C° 0 mm 3 mps 763 mmHg 84%

    Day after tomorrow, 23 February, Thursday

    Time Temperature Precipitation Wind Pressure Humidity
    00:00 +5°C° 0 mm 3 mps 762 mmHg 84%
    01:00 +5°C° 0 mm 3 mps 762 mmHg 83%
    02:00 +5°C° 0 mm 3 mps 762 mmHg 82%
    03:00 +5°C° 0 mm 3 mps 762 mmHg 83%
    04:00 +5°C° 0 mm 3 mps 761 mmHg 83%
    05:00 +5°C° 0 mm 4 mps 761 mmHg 84%
    06:00 +5°C° 0 mm 4 mps 761 mmHg 83%
    07:00 +5°C° 0 mm 4 mps 762 mmHg 82%
    08:00 +5°C° 0 mm 4 mps 762 mmHg 82%
    09:00 +7°C° 0 mm 4 mps 762 mmHg 76%
    10:00 +10°C° 0 mm 5 mps 762 mmHg 71%
    11:00 +13°C° 0 mm 5 mps 762 mmHg 66%
    12:00 +14°C° 0 mm 5 mps 762 mmHg 64%
    13:00 +14°C° 0 mm 5 mps 761 mmHg 62%
    14:00 +15°C° 0 mm 5 mps 761 mmHg 60%
    15:00 +15°C° 0 mm 4 mps 761 mmHg 65%
    16:00 +14°C° 0 mm 4 mps 761 mmHg 69%
    17:00 +13°C° 0 mm 3 mps 761 mmHg 74%
    18:00 +12°C° 0 mm 4 mps 761 mmHg 78%
    19:00 +11°C° 0 mm 4 mps 761 mmHg 82%
    20:00 +10°C° 0 mm 4 mps 761 mmHg 86%
    21:00 +10°C° 0 mm 4 mps 761 mmHg 87%
    22:00 +8°C° 0 mm 5 mps 761 mmHg 89%
    23:00 +8°C° 0 mm 5 mps 761 mmHg 90%

    24 February, Friday

    Time Temperature Precipitation Wind Pressure Humidity
    00:00 +8°C° 0 mm 5 mps 761 mmHg 91%
    01:00 +8°C° 0 mm 5 mps 761 mmHg 92%
    02:00 +8°C° 0 mm 5 mps 760 mmHg 92%
    03:00 +8°C° 0 mm 5 mps 760 mmHg 92%
    04:00 +8°C° 0 mm 5 mps 759 mmHg 92%
    05:00 +8°C° 0 mm 6 mps 759 mmHg 93%
    06:00 +8°C° 0 mm 6 mps 759 mmHg 92%
    07:00 +8°C° 0 mm 6 mps 759 mmHg 91%
    08:00 +8°C° 0 mm 6 mps 759 mmHg 91%
    09:00 +9°C° 0 mm 6 mps 759 mmHg 84%
    10:00 +11°C° 0 mm 7 mps 759 mmHg 78%
    11:00 +12°C° 0 mm 7 mps 759 mmHg 71%
    12:00 +14°C° 0 mm 7 mps 758 mmHg 68%
    13:00 +15°C° 0 mm 7 mps 758 mmHg 64%
    14:00 +16°C° 0 mm 7 mps 757 mmHg 60%
    15:00 +15°C° 0 mm 6 mps 757 mmHg 64%
    16:00 +15°C° 0 mm 6 mps 757 mmHg 67%
    17:00 +14°C° 0 mm 6 mps 756 mmHg 71%
    18:00 +13°C° 0 mm 6 mps 756 mmHg 74%
    19:00 +11°C° 0 mm 7 mps 756 mmHg 77%
    20:00 +10°C° 0 mm 8 mps 756 mmHg 80%
    21:00 +10°C° 0 mm 8 mps 756 mmHg 81%
    22:00 +10°C° 0 mm 8 mps 756 mmHg 82%
    23:00 +10°C° 0 mm 8 mps 756 mmHg 83%

    25 February, Saturday

    Time Temperature Precipitation Wind Pressure Humidity
    00:00 +10°C° 0 mm 9 mps 755 mmHg 84%
    01:00 +10°C° 0 mm 9 mps 754 mmHg 85%
    02:00 +10°C° 0 mm 9 mps 753 mmHg 86%
    03:00 +11°C° 0 mm 10 mps 753 mmHg 85%
    04:00 +11°C° 0 mm 10 mps 752 mmHg 83%
    05:00 +12°C° 0 mm 11 mps 751 mmHg 82%
    06:00 +12°C° 0 mm 10 mps 751 mmHg 82%
    07:00 +12°C° 0 mm 10 mps 751 mmHg 82%
    08:00 +12°C° 0 mm 10 mps 751 mmHg 82%
    09:00 +9°C° 1.8 mm 10 mps 752 mmHg 82%
    10:00 +7°C° 1.8 mm 11 mps 753 mmHg 82%
    11:00 +6°C° 1.8 mm 11 mps 754 mmHg 82%
    12:00 +5°C° 1.8 mm 10 mps 755 mmHg 82%
    13:00 +3°C° 1.8 mm 10 mps 757 mmHg 82%
    14:00 +3°C° 1.8 mm 9 mps 759 mmHg 83%
    15:00 +4°C° 0.4 mm 8 mps 760 mmHg 81%
    16:00 +4°C° 0.4 mm 7 mps 761 mmHg 79%
    17:00 +3°C° 0.4 mm 5 mps 762 mmHg 77%
    18:00 +3°C° 0 mm 5 mps 763 mmHg 80%
    19:00 +3°C° 0 mm 4 mps 764 mmHg 83%
    20:00 +2°C° 0 mm 3 mps 765 mmHg 85%
    21:00 +3°C° 0 mm 2 mps 766 mmHg 85%
    22:00 +3°C° 0 mm 2 mps 766 mmHg 85%
    23:00 +2°C° 0 mm 2 mps 766 mmHg 85%

    26 February, Sunday

    Time Temperature Precipitation Wind Pressure Humidity
    00:00 +2°C° 0 mm 2 mps 767 mmHg 85%
    01:00 +2°C° 0 mm 2 mps 767 mmHg 85%
    02:00 +2°C° 0 mm 2 mps 767 mmHg 84%
    03:00 +2°C° 0 mm 2 mps 767 mmHg 85%
    04:00 +2°C° 0 mm 2 mps 767 mmHg 85%
    05:00 +2°C° 0 mm 2 mps 767 mmHg 85%
    06:00 +1°C° 0 mm 3 mps 767 mmHg 84%
    07:00 +2°C° 0 mm 3 mps 767 mmHg 83%
    08:00 +2°C° 0 mm 3 mps 767 mmHg 81%
    09:00 +4°C° 0 mm 4 mps 767 mmHg 76%
    10:00 +5°C° 0 mm 5 mps 767 mmHg 70%
    11:00 +7°C° 0 mm 6 mps 767 mmHg 64%
    12:00 +8°C° 0 mm 6 mps 766 mmHg 62%
    13:00 +9°C° 0 mm 6 mps 765 mmHg 61%
    14:00 +10°C° 0 mm 6 mps 765 mmHg 59%
    15:00 +9°C° 0 mm 6 mps 764 mmHg 63%
    16:00 +9°C° 0 mm 5 mps 764 mmHg 67%
    17:00 +8°C° 0 mm 4 mps 764 mmHg 71%
    18:00 +7°C° 0 mm 4 mps 764 mmHg 74%
    19:00 +6°C° 0 mm 4 mps 764 mmHg 77%
    20:00 +5°C° 0 mm 4 mps 764 mmHg 80%
    21:00 +5°C° 0 mm 4 mps 764 mmHg 81%
    22:00 +5°C° 0 mm 4 mps 764 mmHg 82%
    23:00 +4°C° 0 mm 3 mps 764 mmHg 83%
    Show more